Orbital Elements at Epoch 2459200.5 (2020-Dec-17.0) TDB
Reference: JPL 23 (heliocentric ecliptic J2000)
Element | Value | Uncertainty (1-sigma) | Units |
e | .1322201668260038 | 3.0627e-08 | |
a | 2.281114645882721 | 8.447e-09 | au |
q | 1.979505286854867 | 6.8373e-08 | au |
i | 5.63733974054277 | 4.2513e-06 | deg |
node | 359.6233506338305 | 3.1665e-05 | deg |
peri | 256.8226136120815 | 3.5342e-05 | deg |
M | 140.5421778161889 | 1.5646e-05 | deg |
tp | 2458709.226572207637 (2019-Aug-13.72657221) | 5.4509e-05 | TDB |
period | 1258.401120242768 3.45 | 6.9898e-06 1.914e-08 | d yr |
n | .2860773041353852 | 1.589e-09 | deg/d |
Q | 2.582724004910575 | 9.5639e-09 | au |
|
| | Orbit Determination Parameters
Additional Information
|